Torna al catalogo

LEMUR 2 ZACHARY

AttivoMeteoSSO
NORAD 42845·PAYLOAD·🇺🇸 United States

Lanciato Jul 14, 2017 da Baikonur Cosmodrome

Loading…

Prossimi Passaggi (prossime 24 ore)

TLE

AggiornatoSource: Space-Track

Epoca: Sep 14, 2026, 19:19 UTC

1 42845U 17042W   26257.80537555  .00061814  00000-0  79734-3 0  9990
2 42845  97.3530  91.8738 0003220  54.1600 305.9955 15.58798277503127

Traccia LEMUR 2 ZACHARY in tempo reale con AllMySat

Download on the App Store